Wind_Speed
31 32 31 31 31 31 30 30 30 31 30 30 31 31 31 32 33 33 34 34 34 34 34 34 34 33 33 34 34 34 35 36 36 36 36 36 36 36 36 35 35 35 35
32 33 33 33 34 34 33 33 33 32 32 32 31 32 32 32 32 33 34 35 35 35 36 35 35 35 35 35 36 36 36 36 37 37 37 37 37 37 37 37 37 37 37
33 33 34 34 34 35 35 34 35 34 34 33 33 32 32 32 33 33 34 34 35 36 37 37 37 37 36 37 37 37 37 37 37 38 38 38 38 39 38 38 38 38 39
35 34 34 34 34 35 36 35 35 36 36 35 35 35 35 34 34 34 34 35 36 36 37 38 38 38 38 39 38 38 39 38 39 39 39 39 39 40 40 40 40 40 40
36 36 35 34 34 34 35 36 36 37 38 38 37 37 37 37 36 37 37 37 37 38 38 39 40 40 40 40 40 40 40 40 41 40 41 41 42 42 43 43 43 43 43
36 36 36 36 35 35 35 36 37 37 38 39 39 39 39 38 38 38 38 38 38 39 39 40 40 41 41 41 41 41 42 42 42 43 43 44 44 44 44 45 45 44 44
37 36 36 36 36 37 37 37 38 38 38 39 39 40 40 40 39 39 39 39 39 40 40 41 41 42 42 43 43 44 44 44 44 44 45 45 45 45 45 45 45 45 45
38 37 36 37 37 37 38 39 38 38 37 38 39 39 39 40 39 39 40 40 41 41 42 42 43 42 43 44 45 45 46 46 45 46 46 45 45 46 46 46 46 46 47
39 39 39 38 38 38 38 39 39 39 38 38 38 39 39 39 40 40 41 41 42 42 42 43 43 43 44 44 45 46 47 47 47 48 48 47 47 46 47 47 47 47 48
40 40 40 40 40 40 39 40 40 40 40 40 39 39 39 40 40 40 41 42 43 43 43 44 45 45 45 46 46 46 47 47 47 48 48 48 48 48 48 48 47 48 48
42 41 41 41 42 41 41 41 41 42 41 41 40 40 40 40 40 41 41 43 44 44 45 46 46 46 46 47 47 48 48 47 47 48 48 49 49 49 49 49 49 49 49
42 42 42 42 43 43 42 42 42 42 42 42 41 41 41 41 41 42 43 43 44 45 46 46 46 46 47 47 47 47 48 48 48 48 49 50 50 51 51 51 50 50 51
42 42 42 43 43 43 43 43 43 43 42 43 42 42 42 42 43 43 44 44 45 45 46 46 46 46 46 46 47 47 48 49 49 49 50 50 51 52 51 52 51 51 51
41 42 43 43 43 43 43 43 43 43 42 43 43 43 43 43 44 44 45 45 46 46 45 45 46 46 46 47 47 48 48 49 49 50 50 51 51 51 51 51 51 51 52
41 42 43 43 43 43 43 43 43 43 42 42 43 44 44 44 44 45 45 46 46 46 45 46 47 47 48 48 48 48 49 49 49 49 50 51 51 51 51 51 52 52 52
41 42 43 43 44 43 43 43 42 42 42 42 43 44 44 45 45 45 46 46 46 46 46 46 46 47 48 48 48 48 49 49 49 49 50 50 51 51 51 51 51 51 51
40 40 41 42 42 42 42 42 41 41 42 42 42 43 44 45 45 45 45 46 46 46 47 47 47 46 47 47 47 47 48 48 48 48 49 50 50 51 52 51 51 50 49
39 40 40 40 41 41 41 41 41 41 42 42 42 42 43 44 44 44 44 45 46 47 47 45 45 45 46 46 47 47 47 47 47 48 48 49 49 50 51 50 50 49 48
37 38 39 39 39 40 40 40 41 41 41 41 41 42 42 42 43 44 44 45 46 46 45 44 44 44 45 46 46 46 46 46 46 47 47 48 49 49 50 50 49 49 49
36 36 37 37 37 38 38 39 40 40 40 40 40 41 41 42 43 43 44 44 44 44 44 44 44 44 44 44 44 44 45 45 45 45 46 47 47 48 48 49 48 48 48
34 34 35 35 36 36 36 37 38 38 39 39 40 40 41 41 42 43 43 44 44 43 43 43 43 43 43 43 43 44 44 44 44 44 45 45 46 46 47 47 47 46 45
32 33 34 34 34 34 35 35 36 36 37 38 39 40 40 41 42 42 42 43 43 43 42 42 42 42 42 43 43 43 43 42 42 42 43 43 44 44 44 44 44 43 42
30 31 32 32 33 33 33 34 34 35 36 37 37 38 39 39 40 41 41 41 41 42 41 40 40 40 41 41 42 42 41 41 41 41 42 41 42 41 40 40 41 41 42
29 30 30 31 32 32 32 32 33 34 35 36 37 37 38 38 38 38 37 38 38 38 38 38 38 39 39 40 40 40 39 40 40 40 40 39 39 39 38 39 40 40 40
28 29 30 31 31 31 31 32 33 34 35 35 36 37 37 37 36 36 36 36 36 36 36 37 37 37 38 38 38 37 37 37 37 38 37 37 37 38 38 38 38 38 38
28 28 29 30 30 31 31 32 33 33 34 35 35 36 36 36 36 36 35 36 35 35 36 36 36 36 37 37 36 36 36 36 36 35 36 36 36 36 36 36 36 36 36
Wind_Direction
263 263 262 262 262 262 262 261 260 259 260 261 261 261 261 261 260 261 261 261 261 261 263 265 267 269 270 272 273 274 275 275 275 275 274 274 273 273 273 274 273 273 274
263 264 264 264 263 263 264 263 261 260 260 261 263 264 263 263 263 262 262 262 262 263 263 264 266 268 270 272 274 274 275 275 275 275 275 274 273 273 273 273 273 273 274
261 263 263 263 263 263 263 263 261 261 261 261 263 264 264 264 263 263 263 263 263 264 264 264 266 267 269 271 273 274 273 274 275 274 274 273 273 272 273 274 274 274 274
262 263 263 263 263 263 262 262 262 262 262 263 264 265 265 264 264 263 264 265 266 266 266 265 266 267 269 271 272 272 272 273 274 274 273 273 273 274 274 274 274 274 275
262 262 262 263 263 263 263 262 263 263 263 264 264 265 265 265 265 265 265 266 266 267 267 268 268 268 269 269 270 271 271 272 273 273 273 274 275 276 276 275 275 275 275
262 262 262 262 263 264 264 263 263 264 264 264 265 265 265 265 266 265 266 266 266 267 268 269 270 270 270 269 269 270 270 271 273 273 274 275 276 276 277 277 276 275 275
262 263 263 263 264 264 265 265 264 264 265 265 266 265 265 265 266 266 266 267 266 267 269 270 271 271 271 269 269 269 270 271 272 273 274 274 275 276 276 277 277 276 275
261 263 264 264 264 265 266 266 266 265 265 266 266 266 265 265 265 267 268 268 268 268 270 271 272 273 272 270 270 270 270 271 272 273 273 273 273 274 275 276 277 277 277
261 262 263 264 264 265 266 267 267 267 266 266 266 266 265 265 266 267 268 270 270 270 271 272 273 273 273 273 272 271 271 271 271 271 272 272 272 274 275 275 276 277 278
261 262 262 263 265 266 267 267 267 267 266 267 267 266 265 265 266 267 269 270 272 272 272 272 273 274 274 274 274 273 273 272 272 272 272 271 272 273 274 275 276 277 278
260 261 262 263 264 266 266 267 267 267 267 267 267 266 266 266 266 268 269 271 272 272 272 273 274 275 275 275 275 274 273 274 273 273 272 271 271 273 274 275 276 277 278
261 261 262 263 264 265 266 266 267 267 266 267 267 266 267 267 268 269 270 271 272 273 274 274 275 276 276 276 275 274 274 273 274 273 273 272 272 273 274 275 276 278 277
262 262 262 263 264 265 265 265 266 267 267 267 267 267 268 269 269 270 271 272 274 274 274 275 276 276 277 277 275 274 274 274 274 274 274 273 273 274 274 275 276 277 278
262 263 263 264 264 265 265 265 266 267 267 267 266 267 268 269 270 272 273 274 275 275 275 276 276 276 277 277 275 275 275 275 275 275 274 274 274 275 275 276 276 277 278
262 263 263 264 264 265 265 265 265 266 267 267 267 267 268 269 270 272 273 274 275 276 276 277 277 276 277 277 276 276 276 276 276 276 275 275 275 275 276 277 277 277 278
263 263 263 264 265 265 265 264 265 266 266 267 267 268 268 269 271 273 274 274 276 277 277 278 278 277 277 277 277 277 276 276 276 277 276 275 275 275 276 278 278 278 278
263 263 264 264 265 265 264 264 265 266 267 268 268 268 269 270 271 273 274 275 276 278 279 278 278 277 277 278 278 277 277 277 277 276 277 276 276 276 276 277 278 279 278
264 264 264 264 264 265 264 264 265 267 267 268 269 269 270 271 272 273 275 277 278 279 279 279 279 278 278 279 279 278 277 277 276 276 277 276 276 276 276 277 278 278 277
265 265 265 264 264 264 263 264 265 267 268 269 269 270 271 271 273 274 276 278 279 280 280 279 279 278 278 279 279 278 277 278 278 278 277 277 276 277 277 277 277 278 277
265 265 265 264 264 263 263 265 267 268 268 270 270 271 272 273 275 276 277 278 279 280 280 279 278 278 279 280 279 278 278 278 279 279 279 279 278 278 278 278 278 278 278
264 264 264 263 263 263 264 266 268 268 269 270 270 271 274 275 276 277 278 279 280 280 280 279 278 279 279 279 278 279 279 279 280 280 280 280 280 279 278 278 278 279 278
264 264 264 264 263 263 265 266 268 269 270 271 272 274 275 276 277 278 279 280 280 281 280 279 279 279 279 279 279 280 281 281 281 281 281 282 281 280 279 279 278 278 278
264 264 264 264 263 264 266 268 268 269 271 274 275 276 276 278 279 280 280 280 281 282 281 281 281 281 281 281 281 280 281 281 281 282 282 283 282 281 279 278 278 278 279
264 266 266 266 265 265 266 268 270 270 272 274 275 276 277 278 280 282 282 282 283 282 282 283 282 282 282 281 282 282 282 282 283 283 283 282 281 281 280 280 279 279 281
266 267 268 268 267 266 267 268 269 271 273 276 276 276 277 278 280 282 283 283 283 282 283 284 283 283 283 283 283 283 283 283 283 283 284 284 283 282 281 281 281 281 282
265 267 269 269 268 267 267 269 271 273 274 276 277 276 276 278 279 281 282 283 283 283 284 285 285 284 284 284 284 284 283 283 284 284 284 284 283 282 281 281 282 282 282
Height
5788 5788 5789 5788 5789 5789 5789 5789 5789 5789 5790 5790 5791 5792 5792 5792 5792 5793 5793 5794 5794 5794 5795 5795 5796 5796 5796 5795 5795 5794 5794 5793 5792 5792 5791 5790 5789 5789 5788 5788 5788 5787 5787
5781 5781 5781 5781 5781 5781 5781 5782 5782 5782 5783 5783 5783 5784 5784 5784 5785 5785 5785 5786 5786 5786 5787 5788 5788 5788 5788 5787 5787 5786 5785 5785 5784 5783 5782 5781 5781 5780 5780 5779 5779 5779 5778
5773 5773 5773 5773 5773 5773 5773 5774 5774 5775 5775 5775 5776 5776 5776 5777 5777 5778 5778 5778 5778 5779 5779 5779 5779 5779 5779 5779 5778 5777 5777 5776 5775 5774 5773 5772 5772 5771 5771 5770 5770 5770 5769
5765 5765 5765 5765 5765 5765 5765 5766 5766 5767 5767 5768 5768 5768 5768 5769 5769 5770 5770 5770 5770 5770 5770 5770 5770 5770 5770 5769 5769 5768 5767 5766 5766 5765 5764 5763 5762 5762 5761 5761 5760 5760 5759
5756 5756 5757 5757 5757 5757 5757 5757 5758 5759 5759 5760 5760 5760 5760 5760 5761 5761 5761 5761 5761 5761 5761 5761 5761 5761 5760 5760 5759 5758 5757 5757 5756 5755 5754 5753 5752 5752 5751 5750 5750 5749 5749
5747 5748 5748 5748 5749 5749 5749 5749 5749 5750 5750 5751 5751 5751 5752 5752 5752 5752 5752 5752 5752 5752 5752 5752 5752 5751 5750 5750 5749 5748 5748 5747 5746 5745 5744 5743 5742 5741 5741 5740 5739 5738 5738
5738 5739 5739 5740 5740 5740 5740 5741 5741 5741 5741 5741 5742 5743 5743 5743 5743 5743 5743 5743 5743 5743 5743 5742 5742 5741 5740 5740 5739 5738 5738 5737 5736 5735 5734 5733 5732 5731 5730 5729 5728 5727 5727
5729 5729 5730 5731 5731 5731 5731 5732 5732 5732 5732 5732 5733 5733 5734 5735 5734 5734 5734 5734 5734 5733 5733 5733 5732 5731 5730 5729 5728 5728 5727 5726 5725 5723 5723 5722 5721 5720 5719 5718 5717 5716 5715
5719 5720 5721 5721 5722 5722 5722 5722 5722 5723 5723 5723 5723 5723 5724 5725 5725 5725 5725 5724 5724 5723 5723 5722 5721 5720 5719 5718 5717 5716 5715 5714 5713 5712 5711 5710 5709 5708 5707 5706 5705 5704 5703
5709 5710 5711 5711 5712 5712 5713 5713 5713 5713 5714 5714 5714 5714 5714 5715 5715 5716 5715 5714 5714 5713 5713 5712 5710 5709 5708 5707 5705 5704 5703 5702 5701 5700 5699 5698 5698 5697 5696 5694 5693 5692 5691
5698 5699 5700 5701 5702 5702 5703 5703 5703 5703 5704 5704 5704 5704 5704 5704 5704 5705 5706 5705 5703 5702 5701 5700 5699 5698 5696 5695 5694 5692 5691 5690 5689 5688 5687 5686 5685 5684 5683 5682 5681 5680 5679
5687 5689 5690 5690 5691 5692 5692 5693 5693 5693 5693 5694 5694 5694 5694 5695 5695 5694 5694 5694 5693 5692 5690 5688 5687 5686 5684 5683 5682 5680 5679 5678 5677 5676 5675 5674 5673 5672 5671 5669 5668 5667 5666
5677 5678 5679 5679 5680 5680 5681 5682 5682 5682 5683 5683 5684 5684 5684 5684 5684 5683 5683 5682 5681 5680 5679 5677 5675 5674 5672 5671 5669 5668 5667 5666 5665 5664 5662 5661 5660 5659 5658 5656 5655 5653 5652
5666 5666 5667 5668 5668 5669 5669 5670 5671 5671 5672 5672 5673 5673 5673 5673 5673 5672 5671 5670 5669 5669 5667 5666 5664 5662 5660 5659 5657 5656 5655 5654 5652 5651 5649 5648 5647 5646 5644 5643 5641 5639 5638
5654 5655 5655 5656 5657 5657 5658 5659 5659 5660 5661 5661 5662 5662 5662 5662 5661 5660 5659 5658 5657 5656 5656 5654 5652 5650 5648 5647 5645 5643 5642 5641 5639 5638 5636 5635 5633 5632 5631 5629 5627 5626 5624
5642 5643 5644 5645 5645 5646 5646 5647 5648 5649 5650 5650 5651 5651 5650 5650 5650 5649 5648 5646 5645 5643 5642 5642 5640 5638 5636 5634 5632 5630 5629 5628 5626 5625 5623 5622 5620 5619 5617 5616 5614 5612 5611
5631 5631 5632 5633 5634 5635 5635 5636 5637 5638 5639 5639 5639 5639 5639 5639 5638 5637 5636 5634 5633 5631 5629 5629 5627 5625 5623 5621 5619 5618 5616 5615 5614 5612 5610 5608 5607 5605 5604 5602 5601 5599 5598
5620 5621 5621 5622 5623 5624 5624 5625 5626 5627 5628 5628 5628 5628 5628 5627 5627 5626 5624 5622 5621 5619 5617 5616 5615 5613 5611 5608 5606 5605 5603 5602 5600 5599 5597 5595 5594 5592 5591 5590 5588 5586 5584
5609 5610 5611 5611 5612 5613 5613 5614 5615 5616 5617 5617 5617 5617 5617 5616 5615 5614 5613 5611 5609 5606 5604 5603 5602 5600 5599 5596 5594 5592 5590 5589 5587 5585 5584 5582 5581 5579 5578 5576 5575 5573 5572
5599 5600 5600 5601 5602 5603 5604 5605 5605 5606 5606 5606 5607 5606 5606 5605 5604 5603 5601 5599 5597 5595 5593 5592 5590 5589 5587 5584 5582 5580 5578 5576 5574 5573 5571 5569 5568 5566 5565 5563 5563 5561 5559
5589 5590 5591 5592 5592 5593 5595 5595 5596 5596 5596 5596 5596 5596 5595 5594 5593 5591 5589 5587 5585 5583 5581 5580 5578 5577 5574 5572 5571 5568 5567 5565 5563 5561 5559 5557 5555 5554 5552 5551 5549 5547 5546
5581 5581 5582 5583 5584 5585 5586 5586 5587 5587 5587 5587 5586 5586 5585 5583 5582 5580 5578 5576 5574 5572 5570 5568 5567 5565 5563 5561 5559 5557 5555 5554 5552 5550 5547 5545 5543 5541 5540 5538 5537 5535 5534
5572 5573 5573 5574 5575 5576 5577 5577 5577 5578 5577 5577 5576 5575 5574 5573 5571 5569 5567 5565 5563 5561 5559 5558 5556 5554 5552 5550 5548 5546 5544 5542 5540 5538 5536 5534 5532 5530 5529 5527 5525 5524 5523
5564 5565 5565 5566 5567 5567 5568 5569 5569 5569 5568 5567 5567 5565 5564 5562 5560 5558 5556 5555 5553 5551 5549 5547 5546 5544 5541 5539 5537 5535 5533 5531 5530 5527 5525 5524 5522 5520 5518 5516 5515 5514 5512
5557 5557 5558 5558 5559 5559 5559 5560 5560 5559 5559 5558 5557 5555 5554 5552 5551 5548 5547 5545 5543 5541 5539 5537 5536 5533 5531 5529 5527 5525 5523 5521 5519 5517 5515 5513 5512 5510 5508 5506 5505 5503 5502
5549 5550 5550 5550 5550 5551 5551 5551 5551 5551 5550 5549 5548 5546 5544 5543 5541 5539 5538 5536 5534 5532 5530 5528 5526 5523 5521 5519 5516 5514 5513 5511 5509 5508 5506 5504 5502 5500 5499 5497 5495 5493 5492